FW5697 Weather Reports


time (UTC)temp
C
wind
direction
speed
KPH
gust
KPH
rain 1hr
cm
rain 24hr
cm
rain mn
cm
humidity
%
barometer
mb
20260510111530 13 0 0.0 0.0 0.00 0.00 0.00 96 1015.5
20260510110042 13 0 0.0 0.0 0.00 0.00 0.00 96 1015.3
20260510104528 13 0 0.0 0.0 0.00 0.00 0.00 96 1014.9
20260510103027 14 0 0.0 0.0 0.00 0.00 0.00 96 1014.7
20260510101527 14 0 0.0 0.0 0.00 0.00 0.00 96 1014.7
20260510100039 15 0 0.0 0.0 0.00 0.00 0.00 96 1014.4
20260510094537 15 0 0.0 0.0 0.00 0.00 0.00 96 1014.3
20260510093036 15 0 0.0 0.0 0.00 0.00 0.00 96 1014.3
20260510091530 15 0 0.0 0.0 0.00 0.00 0.00 96 1014.3
20260510090030 15 0 0.0 0.0 0.00 0.00 0.00 96 1014.0
20260510084532 15 0 0.0 0.0 0.00 0.00 0.00 96 1013.8
20260510083030 15 0 0.0 0.0 0.00 0.00 0.00 96 1013.8
20260510081539 15 0 0.0 0.0 0.00 0.00 0.00 96 1013.7
20260510080047 15 0 0.0 0.0 0.00 0.00 0.00 96 1013.6
20260510074528 16 0 0.0 0.0 0.00 0.00 0.00 96 1013.7
20260510073039 16 0 0.0 0.0 0.00 0.00 0.00 95 1013.5
20260510071528 16 0 0.0 0.0 0.00 0.00 0.00 95 1013.5
20260510070042 16 0 0.0 0.0 0.00 0.00 0.00 95 1013.5
20260510064530 16 0 0.0 0.0 0.00 0.00 0.00 94 1013.4
20260510063034 16 0 0.0 1.6 0.00 0.00 0.00 93 1013.4
20260510061527 17 0 0.0 3.2 0.00 0.00 0.00 95 1013.4
20260510060037 16 0 0.0 1.6 0.00 0.00 0.00 95 1013.4
20260510054529 16 0 0.0 0.0 0.00 0.00 0.00 94 1013.5
20260510053100 16 0 0.0 1.6 0.00 0.00 0.00 96 1013.5
20260510051530 16 0 0.0 3.2 0.00 0.00 0.00 96 1013.6
20260510050034 16 0 0.0 0.0 0.00 0.00 0.00 96 1013.7
20260510044528 16 0 0.0 0.0 0.00 0.00 0.00 95 1013.9
20260510043030 16 0 0.0 0.0 0.00 0.00 0.00 95 1013.9
20260510041528 16 0 0.0 0.0 0.00 0.00 0.00 95 1014.1
20260510040029 16 0 0.0 0.0 0.00 0.00 0.00 95 1014.1
20260510034528 16 0 0.0 0.0 0.00 0.00 0.00 95 1014.2
20260510033042 16 0 0.0 0.0 0.00 0.00 0.00 95 1014.0
20260510031532 16 0 0.0 0.0 0.00 0.00 0.00 94 1014.1
20260510030028 16 0 0.0 0.0 0.00 0.00 0.00 94 1014.2
20260510024528 17 0 0.0 0.0 0.00 0.00 0.00 94 1014.1
20260510023030 17 0 0.0 0.0 0.00 0.00 0.00 94 1014.0
20260510021611 17 0 0.0 0.0 0.00 0.00 0.00 93 1013.7
20260510020031 17 0 0.0 0.0 0.00 0.00 0.00 93 1013.7
20260510014542 17 0 0.0 0.0 0.00 0.00 0.00 92 1013.6
20260510013031 17 0 0.0 0.0 0.00 0.00 0.00 92 1013.5
20260510011530 17 0 0.0 0.0 0.00 0.00 0.00 91 1013.4
20260510010039 18 0 0.0 0.0 0.00 0.00 0.00 90 1013.1
20260510004528 18 0 0.0 0.0 0.00 0.00 0.00 89 1012.9
20260510003030 18 0 0.0 0.0 0.00 0.00 0.00 89 1012.6
20260510001527 18 0 0.0 0.0 0.00 0.00 0.00 88 1012.7
20260510000028 19 0 0.0 0.0 0.00 0.00 0.00 88 1012.5
20260509234529 19 0 0.0 0.0 0.00 0.00 0.00 86 1012.5
20260509233034 20 0 0.0 0.0 0.00 0.00 0.00 86 1012.2
20260509231528 20 0 0.0 0.0 0.00 0.00 0.00 84 1012.1
20260509230038 20 0 0.0 0.0 0.00 0.00 0.00 82 1012.1
20260509224527 20 0 0.0 1.6 0.00 0.00 0.00 81 1011.9
20260509223028 20 0 0.0 1.6 0.00 0.00 0.00 80 1011.8
20260509221530 21 0 0.0 3.2 0.00 0.00 0.00 78 1011.8
20260509220029 21 199 0.0 3.2 0.00 0.00 0.00 76 1011.8
20260509214529 21 215 1.6 4.8 0.00 0.00 0.00 77 1011.9
20260509213034 21 0 0.0 4.8 0.00 0.00 0.00 76 1011.8
20260509211528 21 196 0.0 4.8 0.00 0.00 0.00 75 1011.6
20260509210033 21 173 1.6 6.4 0.00 0.00 0.00 74 1011.7
20260509204527 21 194 1.6 4.8 0.00 0.00 0.00 75 1011.6
20260509203028 21 180 1.6 4.8 0.00 0.00 0.00 73 1011.5
20260509201528 21 56 0.0 4.8 0.00 0.00 0.00 74 1011.5
20260509200030 21 214 0.0 3.2 0.00 0.00 0.00 74 1011.5
20260509194540 21 0 0.0 6.4 0.00 0.00 0.00 74 1011.6
20260509193033 21 91 1.6 6.4 0.00 0.00 0.00 72 1012.0
20260509191527 21 0 0.0 8.0 0.00 0.00 0.00 72 1012.0
20260509190028 21 80 0.0 8.0 0.00 0.00 0.00 74 1012.0
20260509184528 20 181 3.2 8.0 0.00 0.00 0.00 76 1012.2
20260509183028 20 0 3.2 8.0 0.00 0.00 0.00 76 1012.3
20260509181529 20 200 3.2 11.3 0.00 0.00 0.00 78 1012.5
20260509180030 20 192 3.2 14.5 0.00 0.00 0.00 79 1013.0
20260509174528 20 0 1.6 9.7 0.00 0.00 0.00 80 1012.7
20260509173032 19 193 1.6 8.0 0.00 0.00 0.00 82 1012.7
20260509171536 19 190 3.2 14.5 0.00 0.00 0.00 84 1012.7
20260509170028 19 182 0.0 8.0 0.00 0.00 0.00 85 1012.7
20260509164528 19 235 0.0 9.7 0.00 0.00 0.00 85 1012.5
20260509163034 19 0 1.6 14.5 0.00 0.00 0.00 85 1012.5
20260509161528 19 194 1.6 6.4 0.00 0.00 0.00 86 1012.9
20260509160031 19 197 1.6 9.7 0.00 0.00 0.00 86 1012.5
20260509154529 19 178 0.0 6.4 0.00 0.00 0.00 87 1012.3
20260509153046 18 136 1.6 9.7 0.00 0.00 0.00 88 1012.2
20260509151528 18 201 3.2 12.9 0.00 0.00 0.00 90 1012.5
20260509150030 17 207 1.6 6.4 0.00 0.00 0.00 91 1012.7
20260509144532 17 205 1.6 6.4 0.00 0.00 0.00 92 1012.8
20260509143028 17 0 1.6 9.7 0.00 0.00 0.00 92 1012.8
20260509141535 16 192 1.6 6.4 0.00 0.00 0.00 93 1012.8
20260509140026 16 186 3.2 9.7 0.00 0.00 0.00 94 1013.1
20260509134528 16 205 0.0 8.0 0.00 0.00 0.00 94 1013.0
20260509133030 16 202 1.6 6.4 0.00 0.00 0.00 94 1012.5
20260509131530 15 0 0.0 4.8 0.00 0.00 0.00 95 1012.5
20260509130030 15 191 0.0 4.8 0.00 0.00 0.00 95 1012.4
20260509124531 15 205 1.6 6.4 0.00 0.00 0.00 95 1012.7
20260509123030 15 176 0.0 4.8 0.00 0.00 0.00 96 1012.8
20260509121530 15 229 0.0 1.6 0.00 0.00 0.00 96 1012.7
20260509120030 14 0 0.0 1.6 0.00 0.00 0.00 97 1012.0
20260509114535 14 0 0.0 1.6 0.00 0.00 0.00 97 1012.0
20260509113029 13 0 0.0 0.0 0.00 0.00 0.00 97 1012.1